Location: Arleux
(50.3632°N, 2.8721°E)
Time: 05:46:04
(UTC+00:00)

Iridium 4 Rocket - Pass Details

Date: 15 December 2019
Orbit: 583 x 906 km, 86.9° (Epoch: 19 January)

Event Time Altitude Azimuth Distance (km) Brightness Sun altitude
Rises 06:47:34 0° 360° (N) 2,985 6.3 -8.2°
Reaches altitude 10° 06:49:56 10° 5° (N) 2,028 5.5 -7.8°
Maximum altitude 06:54:15 53° 82° (E) 751 3.9 -7.2°
Drops below altitude 10° 06:58:21 10° 160° (SSE) 1,913 6.4 -6.7°
Sets 07:00:31 0° 166° (SSE) 2,799 7.1 -6.3°
